Etusivu
METAR-TAF:

METAR-TAF

Lentoasemat :

Winona Municipal Airport (Max Conrad Field)

Winona, Minnesota, Yhdysvallat

Leveyspiiri: 44-05N, Pituuspiiri: 091-42W, korkeus merenpinnasta: 200 m

Tämänhetkinen sää

Tämä raportti tehtiin 24 minuuttia sitten, kello 09.15 UTC
Tuuli 7 kn etelästä/kaakosta
Lämpötila -7°C
Kosteus 62%
Ilmanpaine 1018 hPa
Näkyvyys: 16.1 km
Hajanaisia pilviä 12000 ft:n korkeudessa

METAR: KONA 130915Z AUTO 15007KT 10SM SCT120 M07/M13 A3006 RMK AO2

Aika: 03:39 (09:39 UTC)


TAF: puuttuu

Säähavainnot ja -ennusteet yli 4000 lentoasemalta (METAR- ja TAF-raportit).

Käytössä olevat sääasemat on merkitty karttaan keltaisilla ja punaisilla pisteillä.

Aseta hiiri pisteen päälle nähdäksesi sääaseman nimen.

Klikkaa sitten nähdäksesi säähavainnot ja -ennusteet.

Kartan vaihtaminen: klikkaa mustalla rastilla varustettuja vihreitä pisteitä, niin voit zoomata sisään; viivalla varustettua vihreää pistettä, niin voit zoomata ulos tai vihreitä nuolia, niin pääset viereisille kartoille.


METAR-TAF: